Miscellaneous Local Product
Issued by NWS Hastings, NE

Home | Current Version | Previous Version | Text Only | Print | Product List | Glossary On
Versions: 1 2 3 4 5 6 7 8 9 10 11 12 13 14 15 16 17 18 19 20 21 22 23 24 25 26 27 28 29 30 31 32 33 34 35 36 37 38 39 40 41 42 43 44 45 46 47 48 49 50
000
AXUS43 KGID 010702
MISGRI

GID CWA HOURLY WEATHER ROUNDUP
NATIONAL WEATHER SERVICE HASTINGS NE
100 AM CST SUN MAR 01 2015

NOTE: "FAIR" INDICATES FEW OR NO CLOUDS BELOW 12,000 FEET WITH NO
SIGNIFICANT WEATHER AND/OR OBSTRUCTIONS TO VISIBILITY.

...SOUTH CENTRAL NEBRASKA...

CITY           SKY/WX    TMP DP  RH WIND       PRES   REMARKS
GRAND ISLAND   CLEAR     15  12  88 SW9       30.28R WCI   3
HASTINGS       PTCLDY    15  12  88 S6        30.27R WCI   6
KEARNEY        CLEAR     12  10  92 S8        30.25F WCI   1
ORD            CLEAR     12   7  80 CALM      30.23S
YORK           PTCLDY    14  10  85 SW6       30.30F WCI   5
AURORA         PTCLDY    14  11  87 SW7       30.28S WCI   4
LEXINGTON      PTCLDY    14  11  89 S6        30.21F WCI   5
HOLDREGE       PTCLDY    14  11  88 CALM      30.23F
HEBRON         MOCLDY    20  15  81 S3        30.33S

...NEBRASKA PANHANDLE...

CITY           SKY/WX    TMP DP  RH WIND       PRES   REMARKS
CHADRON        CLOUDY    19   9  65 NE10      30.18S WCI   7
ALLIANCE       CLOUDY    18  11  74 E8        30.11R WCI   8
SCOTTSBLUFF    CLOUDY    23  13  65 NE8       30.10R WCI  14
SIDNEY         CLOUDY    20  14  77 S5        30.09R WCI  13

...WESTERN AND NORTH CENTRAL NEBRASKA...

CITY           SKY/WX    TMP DP  RH WIND       PRES   REMARKS
VALENTINE      CLOUDY    19   5  54 NE8       30.22R WCI   9
AINSWORTH      PTCLDY    16   5  62 N5        30.22R WCI   9
ONEILL         CLEAR     17  11  77 SW5       30.24R WCI   9
BROKEN BOW     PTCLDY    16  11  80 CALM      30.20F
IMPERIAL         N/A     16  11  80 SE6       30.14S WCI   7
NORTH PLATTE   MOCLDY    16  10  77 S5        30.18F WCI   9
MCCOOK         MOCLDY    20  14  77 S7        30.20F WCI  11

...EASTERN NEBRASKA...

CITY           SKY/WX    TMP DP  RH WIND       PRES   REMARKS
NORFOLK        CLEAR     17  13  84 SW10      30.27F WCI   5
SO SIOUX CITY  CLEAR     18  13  80 S8        30.32R WCI   8
TEKAMAH        CLEAR     13  10  88 S7        30.34R WCI   3
COLUMBUS       CLEAR     16   7  67 SW6       30.31S WCI   7
ALBION         CLEAR     13   9  83 S5        30.27R WCI   6
OMAHA EPPLEY   CLOUDY    23  15  71 SW10      30.36S WCI  12
OFFUTT AFB     CLOUDY    22  15  74 SW5       30.34F WCI  16
MILLARD        CLOUDY    23  16  74 CALM      30.35S
LINCOLN        CLOUDY    21  14  74 SW10      30.35S WCI  10
NEBRASKA CITY  CLOUDY    21  17  82 SW3       30.35R
BEATRICE       CLOUDY    21  18  88 SW3       30.34S
FALLS CITY     CLOUDY    19  16  88 CALM      30.37S

...NORTHERN KANSAS...

CITY           SKY/WX    TMP DP  RH WIND       PRES   REMARKS
GOODLAND       CLOUDY    18  16  92 S8        30.12F WCI   8
HILL CITY      CLOUDY    20  15  81 CALM      30.26F
NORTON         CLOUDY    19  12  73 SE3       30.22
PHILLIPSBURG   CLOUDY    21  19  93 CALM      30.28F
SMITH CENTER   CLOUDY    18  16  93 SE3       30.29F
BELOIT         CLOUDY    21  18  86 CALM      30.32F
HAYS           PTCLDY    18   7  62 CALM      30.26F
RUSSELL        MOCLDY    17  15  92 S6        30.28S WCI   9
CONCORDIA      CLOUDY    20  17  88 CALM      30.32F
SALINA         PTCLDY    19  16  88 CALM      30.34F
TOPEKA         CLOUDY    23  19  85 E3        30.36F



USA.gov is the U.S. government's official web portal to all federal, state and local government web resources and services.